TRANSIT 5B-2 DEB, 25156

Orbit data source: Space-Track

TRANSIT 5B-2 DEB, 25156 is space debris in LEO originally from a launch on Thu, 05 Dec 1963 UTC launched from the Air Force Western Test Range (AFWTR). Debris objects in space refer to the collection of defunct objects orbiting the Earth. Examples of debris include non-operational satellites, rocket bodies, and fragments generated from explosions, collisions, or faulty payload assembly.

Loading next visibility...
Identifier
25156, 1963-049N
Orbit
LEO
Country
Flag of USUS
Related business
Manufacturer
Unknown
Mission
Spacecraft
Bus & Motor
Unknown
Mass
Unknown
Launch date (UTC)
1963-12-05 (62 years ago)
Launch vehicle
Unknown
Launch site
Air Force Western Test Range (AFWTR)
Object type
Payload
Rocket body
Debris
Shape & HBR
Unknown shape, 0.3 m
Radar Cross Section
Medium (>0.1 m² and <1 m²)

Expand to show TLE details & history
Last TLE update: 14 hours ago

TLE from 14 hours ago
0 TRANSIT 5B-2 DEB
1 25156U 63049N   26071.03440170  .00000743  00000-0  10243-2 0  9992
2 25156  89.9157  72.7428 0040133 310.4653 109.5407 13.57221942385854
Epoch: 2026-03-12T00:49Z
TLE epoch observation values (Epoch: 2026-03-12T00:49:32.306Z)
Latitude
60.52786°
Longitude
-109.18349°
Altitude
1,066.28 km
Speed
7.319 km/s
True Right ascension
04h 51m 33s
True Declination
60° 23' 11"
Sunlit
Object was in daylight at epoch
Visualization orbit readout
Latitude
Unknown
Longitude
Unknown
Altitude
Unknown
Speed
Unknown
Apparent Right ascension
Unknown
Apparent Declination
Unknown
Sunlit
N/A
Visualization observer readout
Local Sidereal Time
19:34:40
Azimuth
Unknown
Elevation
Unknown
Doppler factor
Unknown
Orbital elements
Apogee altitude
1,072.627 km
Perigee altitude
1,013.062 km
Semi-major axis
7,420.982 km
Eccentricity
0.00401
Inclination
89.9157°
RAAN
72.7428°
Arg. of periapsis
310.4653°
True anomaly
109.97337°
Mean anomaly
109.5407°
Eccentric anomaly
109.75711°
Mean motion
3.39509 °/min
Orbital period
106.04 mins
BSTAR
0.0010243
Loading maneuver chart data...
Computing Atmospheric mass density...
Loading historical data...
Loading historical data...
Loading historical data...
Loading historical data...
Loading historical data...
Loading historical data...
Loading historical data...

Documentation

Showing up to 5 results
|